User: anonymous   Login
Location: Lourdes
(43.1000°N, 0.0500°W)
Time: 06:17:44
(UTC+00:00)
Language:

COSMOS 2251 DEB - Orbit

View from above orbital plane
View from above orbital plane
View from above satellite
View from above satellite

Ground track
Ground track

The orbit data is extracted from the following two-line orbital elements,

1 34114U 93036KK  21171.01792432  .00000815  00000-0  31204-3 0  9991
2 34114  74.0667 179.5102 0075340 235.2261 154.9160 14.30685422642542
Epoch (UTC): 20 June 2021 00:25:48
Eccentricity: 0.0075340
inclination: 74.0667°
perigee height: 735 km
apogee height: 843 km
right ascension of ascending node: 179.5102°
argument of perigee: 235.2261°
revolutions per day: 14.30685422
mean anomaly at epoch: 154.9160°
orbit number at epoch: 64254

The dashed part of the orbit path shows where the satellite is in the earth's shadow,  

DLR